Regional Weather Roundup
Issued by NWS Cleveland, OH

Home | Current Version | Previous Version | Text Only | Print | Product List | Glossary Off
Versions: 1 2 3 4 5 6 7 8 9 10 11 12 13 14 15 16 17 18 19 20 21 22 23 24 25 26 27 28 29 30 31 32 33 34 35 36 37 38 39 40 41 42 43 44 45 46 47 48 49 50

000
ASUS41 KCLE 250210
RWRCLE
OHIO REGIONAL WEATHER ROUNDUP
NATIONAL WEATHER SERVICE WILMINGTON, OH
1000 PM EDT FRI APR 24 2015

NOTE: "FAIR" INDICATES FEW OR NO CLOUDS BELOW 12,000 FEET WITH NO
SIGNIFICANT WEATHER AND/OR OBSTRUCTIONS TO VISIBILITY.

OHZ001>008-015>018-024>027-034-035-043-044-250300-
   NORTHWEST OHIO

CITY           SKY/WX    TMP DP  RH WIND       PRES   REMARKS
DEFIANCE       CLOUDY    55  27  34 N7        29.96S
FINDLAY        CLOUDY    55  26  32 SE3       29.95S
TOLEDO EXPRESS CLOUDY    51  29  42 E7        29.96S
TOLEDO EXEC    CLOUDY    48  31  51 E6        29.98S
LIMA           CLOUDY    50  34  54 CALM      29.95S
$$

OHZ009>014-019>023-028>033-038-089-250300-
   NORTHEAST OHIO

CITY           SKY/WX    TMP DP  RH WIND       PRES   REMARKS
CLE-HOPKINS    PTCLDY    45  22  40 E5        30.03R
CLE-LAKEFRONT  PTCLDY    46  23  40 E3        30.00R
CUY CO. ARPT   MOCLDY    43  27  52 E8        30.02S
LORAIN-ELYRIA  PTCLDY    41  28  60 E6        30.00R
ASHTABULA      CLEAR     37  19  48 NE5       30.03S
AKRON-CANTON   MOCLDY    43  22  43 NE6       29.99F
WOOSTER        LGT RAIN  41  27  57 E6        29.99F
MANSFIELD      MOCLDY    45  28  51 NE7       29.97F
YOUNGSTOWN     MOCLDY    39  19  44 NE6       30.01R
$$

OHZ042-051>053-060>062-070>072-077>081-250300-
  SOUTHWEST OHIO

CITY           SKY/WX    TMP DP  RH WIND       PRES   REMARKS
CINC-COVINGTON CLOUDY    55  33  43 S7        29.94F
CINC-LUNKEN    CLOUDY    55  34  45 SE5       29.95F
HAMILTON       CLOUDY    56  35  45 E3        29.94F
DAYTON         CLOUDY    55  29  36 SE7       29.95F
WRIGHT-PAT AFB CLOUDY    54  27  35 SE5       29.94F
DAYTON GENERAL CLOUDY    53  29  39 SE7       29.94F
WILMINGTON     CLOUDY    51  34  52 SE5       29.95F
$$

OHZ036-037-039>041-045>050-054>059-063>069-073>076-082>088-250300-
  CENTRAL AND SOUTHEAST OHIO

CITY           SKY/WX    TMP DP  RH WIND       PRES   REMARKS
COLUMBUS       CLOUDY    52  28  39 SE3       29.96F
OSU AIRPORT    CLOUDY    52  26  36 E3        29.95F
BOLTON FIELD   CLOUDY    50  33  51 CALM      29.96F
RICKENBACK AFB CLOUDY    51  33  50 E3        29.95F
NEWARK         MOCLDY    46  35  65 CALM      29.96F
MARION         MOCLDY    45  33  63 CALM      29.97F
LANCASTER      CLOUDY    48  38  68 CALM      29.97F
ZANESVILLE     MOCLDY    47  26  44 CALM      29.98F
NEW PHILLY     PTCLDY    44  29  55 CALM      29.99F
$$


USA.gov is the U.S. government's official web portal to all federal, state and local government web resources and services.